GFSNE_prec_cthk_114.txt.gz
RH
50 49 50 50 75 90 97 97 97 98 96 91 95 94 83 70 68 75 70 63 60 60 57 59 62 61 62 67 66 64 62 63 69 74 75 77 73 73
52 48 50 55 65 80 90 97 99 98 96 94 95 91 85 81 78 78 74 66 65 68 64 66 67 69 69 67 67 66 64 67 75 80 80 76 72 71
54 47 48 56 66 79 91 98 97 97 97 97 94 91 91 88 82 79 74 71 71 72 73 80 80 81 78 76 76 71 67 71 79 83 79 73 68 67
57 49 47 54 70 83 92 96 99 97 97 95 94 95 94 89 88 81 81 82 81 82 87 88 88 89 89 86 81 74 71 73 78 81 78 71 72 79
58 53 51 57 68 80 95 98 96 98 97 96 96 96 97 93 90 90 90 87 91 92 89 91 88 88 89 88 80 76 72 73 73 73 72 76 83 90
61 58 54 59 64 76 91 97 94 98 98 98 97 96 97 96 94 95 96 95 95 94 95 96 93 92 91 87 81 75 69 73 76 79 81 88 95 94
66 63 61 59 62 70 85 93 95 98 98 97 98 98 96 96 96 95 95 95 97 96 95 95 96 95 93 89 80 77 73 75 82 88 90 94 97 95
72 67 67 63 64 73 78 85 89 96 98 97 97 98 96 96 94 97 98 98 95 94 97 97 98 96 93 87 78 75 77 85 83 85 89 95 95 96
76 72 74 71 66 62 83 86 88 92 99 97 96 97 97 97 98 99 97 97 88 90 91 90 92 90 88 80 81 79 83 84 85 92 96 92 95 94
80 80 77 81 78 66 77 76 85 87 92 98 97 95 93 95 94 96 98 98 97 98 90 83 85 84 81 79 81 82 85 85 88 92 94 96 96 91
84 82 84 83 88 83 75 67 76 97 90 89 98 99 98 99 98 98 96 90 83 84 83 82 83 84 85 82 80 83 86 87 91 96 97 89 68 61
93 89 90 86 90 86 89 88 85 83 79 94 82 95 99 88 91 97 94 93 86 82 80 85 85 83 82 87 91 93 94 91 87 82 71 61 54 52
95 95 97 96 92 92 90 86 96 93 89 89 86 79 85 86 82 84 89 85 81 85 84 87 92 90 91 93 96 97 98 95 84 71 66 59 55 51
97 95 96 96 98 98 96 96 96 99 95 94 94 95 96 92 96 93 99 93 95 99 99 98 97 98 98 98 97 96 91 80 68 62 58 56 50 45
97 97 97 96 96 97 98 97 99 97 98 98 97 97 96 95 98 97 99 98 98 97 98 98 97 96 93 88 83 81 77 71 63 58 51 45 41 42
97 96 97 97 97 96 98 98 96 98 98 98 97 97 97 97 98 97 97 97 97 97 95 92 89 87 84 82 80 80 75 65 59 54 50 49 47 41
96 96 97 96 96 97 98 97 96 98 97 97 96 96 97 97 97 95 93 91 88 83 80 79 79 79 78 74 70 67 64 59 55 51 47 43 38 34
81 86 93 96 96 96 96 96 97 96 96 97 96 97 96 96 96 96 95 91 87 82 77 75 73 70 68 65 60 56 52 49 46 42 37 33 30 31
70 73 72 74 81 87 92 93 94 95 96 95 96 94 93 91 86 80 78 76 72 68 65 61 57 54 53 52 52 48 46 43 42 40 36 32 27 24
61 61 61 64 66 63 63 66 68 67 68 68 68 66 64 62 61 59 58 57 55 54 52 50 47 46 45 45 44 42 39 37 35 32 29 24 21 18
51 49 48 48 48 49 50 51 50 50 51 50 48 49 49 48 48 48 48 48 46 46 45 44 43 41 41 41 40 38 35 32 29 26 22 20 19 19
47 48 48 48 47 48 49 49 50 50 50 50 49 49 49 49 47 46 45 44 42 42 41 39 38 37 36 36 35 33 28 24 22 22 21 21 22 21
44 45 46 47 47 47 46 46 45 45 45 45 45 45 44 44 43 42 41 40 40 40 39 37 34 31 29 29 28 28 26 24 22 19 19 18 17 17

GFSNE_prec_cthk_117.txt.gz
RH
55 63 65 54 51 48 52 59 79 95 95 97 93 93 96 93 90 82 72 63 59 59 56 48 54 57 57 56 61 61 63 64 67 66 65 66 70 73
55 64 61 59 54 51 52 55 66 87 94 95 94 95 93 93 94 89 75 68 69 69 64 56 61 63 63 60 65 67 70 71 71 67 63 64 72 79
61 64 61 61 58 54 55 58 73 87 93 96 95 97 97 95 98 93 82 79 77 75 72 73 73 69 68 64 67 70 72 73 71 68 67 70 77 85
72 68 63 63 61 56 55 58 70 92 96 98 96 99 98 98 95 93 91 91 85 84 85 79 72 68 71 75 81 79 77 78 80 73 72 75 79 85
85 75 65 65 62 59 58 62 70 86 98 97 98 97 99 98 94 93 94 92 87 89 86 78 73 75 80 86 90 90 89 88 84 80 77 76 77 76
92 82 66 66 64 61 62 62 68 82 94 96 95 97 98 97 97 95 93 92 89 85 82 82 82 89 92 91 92 92 91 91 86 81 75 72 77 77
93 87 75 69 68 67 65 64 68 81 91 94 93 98 97 97 97 97 95 94 95 91 88 89 92 93 92 95 94 92 91 92 90 83 80 80 81 86
93 90 84 75 73 70 70 69 68 72 87 92 94 95 96 96 98 98 96 96 96 95 93 95 95 94 94 95 95 94 92 93 95 87 82 81 86 88
97 96 91 81 79 75 73 75 72 70 78 76 84 94 94 95 96 98 97 97 96 95 96 98 95 92 92 92 92 94 93 94 91 86 86 84 86 86
98 95 93 86 79 83 78 78 75 74 77 78 80 90 97 96 97 98 97 98 98 98 98 94 96 94 94 95 89 90 91 92 91 88 87 87 87 85
99 99 94 90 82 86 83 83 82 84 75 76 82 82 96 97 99 99 98 99 99 97 97 99 97 90 90 95 85 85 87 88 89 87 87 87 86 87
98 98 98 94 92 92 93 93 90 88 89 85 75 91 95 89 92 99 98 99 99 98 98 99 97 94 89 89 85 86 87 88 87 88 90 93 89 79
98 99 98 99 96 91 96 96 96 95 90 89 87 88 87 81 88 83 83 97 98 94 90 94 92 90 91 87 86 87 92 94 95 96 95 94 88 79
98 98 98 98 98 99 99 98 97 95 96 97 88 91 99 95 88 91 94 92 89 95 95 87 91 96 96 89 98 98 97 97 97 96 92 85 76 68
93 95 96 97 97 98 98 99 98 98 98 98 98 96 98 99 98 98 98 97 98 98 98 98 98 98 98 98 97 98 97 97 96 88 78 69 62 57
86 88 90 94 96 96 98 97 97 97 98 98 98 97 97 98 98 98 98 98 98 98 98 98 97 97 97 97 96 97 96 90 80 74 68 63 61 61
69 77 83 88 92 93 96 96 97 96 97 96 97 97 96 97 97 97 97 97 97 97 97 96 96 96 96 94 91 86 78 77 74 69 65 61 58 52
54 60 65 70 77 86 93 95 96 97 96 96 96 96 96 96 97 97 96 96 97 96 96 93 91 89 88 86 82 76 69 65 63 59 55 50 48 45
52 52 53 55 59 64 71 80 85 94 95 95 96 96 96 95 93 89 87 83 81 80 80 79 77 74 71 70 63 59 59 55 52 49 46 43 41 40
49 48 48 48 48 49 51 52 53 59 62 65 71 72 72 72 71 68 67 65 64 63 62 61 59 57 62 62 60 53 51 49 47 44 41 38 36 34
40 40 40 41 42 42 42 42 43 43 44 47 48 48 49 52 53 53 53 53 51 50 48 47 47 47 47 47 49 50 47 45 42 38 36 34 33 29
33 37 40 40 39 40 42 43 42 42 43 44 45 46 48 48 47 47 46 46 47 48 49 48 48 48 48 49 49 45 43 42 40 38 34 29 25 28
33 34 35 37 37 39 40 42 42 41 42 44 45 45 46 46 47 48 48 48 46 45 45 44 43 43 43 42 43 38 34 30 26 23 23 20 18 16

GFSNE_prec_cthk_123.txt.gz
RH
80 83 76 73 72 67 60 58 55 63 65 58 52 49 49 56 70 91 93 92 95 94 86 86 68 57 48 42 40 48 48 42 42 44 47 52 58 67
91 92 89 85 81 78 72 68 64 64 68 63 56 54 50 55 70 82 93 94 94 96 95 90 80 62 52 46 43 46 51 51 51 53 60 60 64 71
89 94 87 89 87 82 76 74 74 73 75 62 61 52 52 54 70 82 92 98 93 94 98 94 85 75 57 55 50 48 49 52 52 56 64 69 70 68
85 86 86 86 88 87 89 84 82 83 83 76 71 66 53 55 63 79 92 97 98 98 99 95 88 81 70 63 61 59 61 61 66 63 68 70 70 67
88 91 88 88 86 90 93 87 80 82 84 83 75 78 61 58 64 70 91 97 98 99 99 97 93 88 87 80 73 65 65 62 70 71 75 73 74 68
84 88 88 88 88 90 90 89 86 84 88 80 78 80 65 63 67 76 85 96 97 98 99 98 96 96 96 94 86 78 72 72 77 78 81 76 79 77
84 85 86 87 88 90 90 90 88 99 96 90 83 83 72 68 65 80 88 93 93 97 98 98 97 96 97 97 95 90 81 80 82 84 84 84 86 87
77 81 83 84 90 89 89 85 89 88 94 94 90 85 81 76 71 79 86 91 91 92 98 99 98 97 96 97 97 95 95 93 87 87 88 94 95 96
88 86 86 78 83 89 88 86 86 87 87 92 91 87 89 83 78 73 71 83 87 91 99 99 98 98 96 97 98 97 94 94 93 94 95 99 97 99
87 90 80 80 86 89 89 99 89 92 92 91 94 93 88 88 82 78 78 81 80 85 94 98 97 98 97 96 98 96 94 95 93 96 93 93 93 94
85 82 83 81 89 91 89 89 89 93 92 98 98 94 93 91 96 84 84 82 77 82 93 98 97 98 98 97 97 97 98 98 97 98 96 95 96 99
85 83 84 87 88 87 87 97 90 94 96 98 98 97 98 96 98 96 92 85 82 83 87 96 99 99 98 98 96 97 98 98 98 98 99 98 95 93
80 86 90 97 97 97 95 98 98 99 98 99 98 98 98 95 98 94 91 93 87 86 80 86 97 99 99 98 98 98 99 99 98 98 98 98 98 99
72 81 84 87 94 93 94 95 98 98 98 98 99 99 98 98 99 98 99 96 97 90 93 92 86 95 97 95 96 98 95 96 97 98 96 98 98 98
47 54 62 70 78 81 91 97 97 97 98 98 98 98 98 98 99 97 98 98 98 98 98 99 96 94 96 94 94 97 91 93 92 95 97 98 94 95
40 42 44 47 53 59 67 75 84 94 97 97 97 97 97 97 97 97 98 97 98 98 98 99 96 98 98 98 98 96 91 91 94 95 96 97 97 97
41 43 43 45 47 48 51 55 63 69 77 86 92 96 96 96 96 97 97 97 96 97 97 97 98 97 97 97 97 97 97 96 97 96 97 96 97 92
38 40 43 45 46 48 51 53 55 58 62 65 70 78 83 91 95 97 95 95 95 96 97 97 96 96 97 96 96 96 96 96 96 96 96 96 95 92
32 34 38 42 45 47 48 50 53 56 58 60 62 64 68 74 79 83 88 93 94 95 96 96 96 96 96 96 96 96 96 96 96 96 94 90 87 84
32 33 34 35 37 39 40 42 46 49 50 50 51 53 57 61 66 69 72 76 85 91 94 96 96 96 97 97 96 96 96 95 95 88 84 79 73 69
32 34 32 33 35 37 37 37 37 37 38 40 42 43 44 45 45 44 43 45 49 54 60 65 74 81 83 81 78 80 76 72 69 69 66 65 67 64
31 33 32 32 32 34 35 37 40 40 41 43 42 42 42 45 43 42 42 42 42 42 42 42 41 44 48 60 65 66 66 62 60 58 56 57 62 66
30 31 33 33 33 34 34 35 36 37 40 42 44 44 43 46 47 45 44 44 43 42 42 43 44 44 47 50 52 50 43 45 47 45 43 42 42 43

GFSNE_prec_cthk_129.txt.gz
RH
63 65 66 68 74 77 80 80 85 88 85 82 79 74 70 64 61 63 67 59 51 52 54 58 75 88 95 94 94 94 89 79 61 55 43 39 38 33
80 83 85 82 81 87 85 83 86 90 99 91 88 87 82 76 74 70 68 70 63 62 59 58 60 76 89 95 95 92 92 87 74 64 53 50 46 38
87 84 84 83 85 91 91 90 82 84 89 84 92 89 88 80 78 78 78 78 74 68 70 72 61 61 77 93 95 89 88 89 84 73 63 59 57 46
90 92 89 86 90 96 92 84 88 82 84 89 90 89 86 85 87 84 80 78 77 76 71 75 72 63 69 89 95 96 92 89 89 87 74 64 63 55
93 93 95 91 93 94 93 91 89 87 85 90 86 83 85 86 87 89 83 81 80 78 69 70 77 64 67 84 92 97 96 95 94 93 90 71 67 60
91 87 92 92 90 90 89 88 88 88 90 91 90 91 82 83 87 92 90 82 84 82 74 73 78 69 66 76 87 96 98 97 97 96 94 82 72 64
90 90 92 93 93 91 90 90 85 82 84 80 82 88 87 89 89 85 91 84 80 82 78 78 77 74 75 78 85 90 96 98 99 97 96 94 85 77
94 92 91 92 88 86 89 91 89 87 85 84 81 83 84 94 98 86 91 83 74 76 79 78 80 79 73 81 81 87 92 95 98 98 97 96 96 92
81 80 82 83 86 83 80 81 80 81 82 81 79 84 87 89 92 84 81 77 75 74 76 79 84 83 78 78 82 83 87 90 92 96 97 96 97 96
82 82 81 79 82 84 84 83 81 84 82 83 79 82 88 94 81 77 77 79 79 78 82 83 88 90 84 80 77 72 80 86 88 94 97 97 97 97
69 70 67 71 75 77 79 81 80 81 80 77 79 85 85 94 94 76 81 80 81 79 84 87 86 95 94 91 83 83 78 82 87 92 97 98 99 98
47 50 54 58 63 65 67 72 76 77 83 82 84 91 86 83 80 76 84 87 82 82 84 90 89 95 96 92 94 93 86 85 89 92 97 99 99 99
29 30 32 34 38 43 48 55 62 70 75 83 85 87 89 85 86 84 90 85 88 95 92 93 96 96 99 97 98 97 92 86 89 92 95 98 99 99
25 26 28 31 31 33 34 36 38 44 53 63 70 77 85 87 88 87 88 90 94 93 96 96 96 98 99 99 98 98 98 93 92 93 94 99 99 99
21 24 24 25 26 29 32 36 37 39 41 41 44 51 61 69 78 91 96 95 97 97 97 99 99 99 99 99 98 98 98 99 97 94 93 93 97 98
21 21 21 22 22 23 26 29 33 35 38 40 43 44 45 48 55 63 74 88 95 92 92 97 98 98 98 98 98 98 98 98 98 98 98 96 93 97
23 20 19 20 21 23 25 28 31 33 35 37 41 44 48 49 50 51 53 58 67 76 88 92 96 97 97 97 97 97 97 97 97 97 97 97 97 97
21 22 23 24 23 24 25 27 30 34 36 38 40 42 45 48 49 51 54 55 55 57 63 74 84 93 95 96 96 96 96 97 96 97 96 96 97 96
22 23 25 26 26 27 27 29 29 30 32 35 37 40 44 45 48 50 50 54 57 57 58 61 65 73 82 90 96 96 96 96 96 96 96 96 96 96
22 24 25 25 26 28 30 31 31 31 31 32 33 35 37 38 38 41 46 50 54 59 60 61 64 66 67 69 76 86 92 95 96 96 96 96 96 96
21 23 24 25 26 27 29 31 33 33 34 34 35 35 36 36 36 37 37 37 40 44 55 61 63 65 67 69 70 71 73 78 81 83 87 92 94 96
22 23 24 24 25 25 25 27 29 32 34 37 39 40 39 39 37 37 38 38 39 38 37 39 48 55 63 70 74 74 75 75 76 77 76 76 78 80
27 26 25 25 25 25 24 24 27 30 31 35 38 39 39 40 41 41 41 42 42 41 40 39 39 42 43 42 42 46 54 57 59 59 61 65 68 69

GFSNE_prec_cthk_132.txt.gz
RH
51 50 53 56 60 64 68 68 72 72 72 74 82 79 80 83 80 76 70 66 64 67 62 58 65 61 64 66 79 86 93 92 83 75 65 61 49 44
58 57 57 62 62 69 74 78 83 84 83 81 78 73 80 86 90 89 86 80 76 72 71 67 68 72 76 70 65 77 90 93 92 90 87 77 65 55
71 69 70 74 74 74 82 89 92 90 94 87 77 75 79 89 91 87 90 92 89 83 81 83 78 74 77 80 76 67 80 93 94 93 93 90 79 66
74 73 76 82 83 84 96 91 91 93 92 88 85 75 79 86 89 89 88 88 91 89 88 84 84 84 77 81 83 71 70 86 93 94 92 92 87 74
80 81 93 94 90 85 85 87 97 98 97 96 91 85 81 83 82 84 80 81 83 90 93 91 90 87 81 79 82 80 67 75 90 94 93 92 91 87
93 92 99 92 91 90 88 92 91 94 94 94 91 87 85 84 86 83 81 81 81 85 88 90 92 92 86 78 79 81 75 70 81 87 89 92 92 89
98 97 99 98 92 96 93 97 92 91 89 94 93 86 85 87 82 80 79 80 80 88 91 93 89 88 88 81 85 86 81 80 81 82 89 88 93 97
99 99 98 93 93 94 92 95 96 94 90 90 88 85 85 85 82 79 81 80 80 90 93 89 87 80 80 85 83 84 83 81 81 87 87 91 93 96
97 97 95 92 93 90 97 91 89 84 81 78 76 76 76 81 75 82 77 81 85 86 91 89 79 71 74 78 81 86 86 86 85 87 90 88 93 95
86 86 89 89 86 84 79 77 79 81 78 79 74 73 72 73 79 80 82 76 78 84 88 79 70 71 72 80 83 82 87 84 89 86 88 88 91 95
60 60 60 61 63 66 63 65 69 69 67 70 72 71 71 76 76 71 74 76 80 81 88 87 74 72 74 77 83 87 87 92 91 88 84 85 88 91
29 31 33 36 40 44 47 48 50 52 55 61 66 70 72 73 73 76 77 77 80 76 83 95 87 79 73 80 85 86 88 92 95 94 93 92 89 87
20 22 25 27 28 29 30 31 33 36 40 44 46 52 58 64 70 73 74 76 82 83 81 80 76 76 80 79 89 90 95 99 97 97 97 98 94 90
12 13 15 17 17 20 22 25 27 29 32 34 36 37 39 42 47 54 62 72 77 78 82 81 78 81 82 82 84 92 93 98 99 98 98 99 99 97
12 15 16 16 16 16 18 20 22 23 25 28 30 33 36 40 41 41 41 46 53 65 76 83 84 86 87 89 87 88 94 98 99 98 98 99 99 98
12 13 14 16 17 18 18 20 22 25 26 27 28 29 31 32 36 40 40 41 42 43 50 59 73 84 93 96 97 96 96 98 98 98 98 98 98 98
16 15 14 13 14 15 16 18 18 22 26 30 31 32 33 33 33 36 39 40 41 42 46 47 51 60 71 83 91 93 91 93 97 97 97 97 97 97
12 13 13 14 15 16 18 19 20 22 24 26 29 32 34 35 37 37 37 40 42 43 46 49 51 55 57 61 69 78 87 90 94 96 96 97 97 97
11 12 12 13 14 15 16 19 20 23 26 28 28 29 30 31 31 36 41 43 45 46 45 47 51 54 57 60 63 67 72 77 88 93 95 96 96 96
13 14 14 15 16 16 16 17 19 21 24 27 30 31 31 32 33 33 33 35 44 46 49 50 51 55 58 61 64 67 70 71 73 81 88 92 95 96
20 19 18 18 18 18 18 17 18 21 24 26 29 31 33 35 37 37 39 36 35 33 40 47 54 58 60 63 66 69 71 73 73 75 78 83 87 91
29 28 26 24 23 21 20 19 19 19 21 23 27 31 36 38 39 41 41 42 40 37 35 37 47 53 61 64 67 69 70 73 74 75 77 78 81 83
34 34 32 30 28 28 27 25 23 22 21 22 26 32 37 38 40 41 42 44 46 46 44 40 41 45 44 50 60 66 72 73 74 75 76 79 79 81

GFSNE_prec_cthk_135.txt.gz
RH
67 71 66 65 60 62 59 57 57 58 58 56 60 61 66 73 76 78 77 75 72 68 64 62 64 60 61 67 72 76 70 76 81 85 81 70 56 52
77 69 67 70 63 62 61 64 63 63 63 62 66 71 77 77 77 78 84 82 82 79 75 77 72 66 63 66 71 77 80 80 73 80 92 92 85 71
88 74 72 74 72 64 62 62 67 67 68 65 76 84 85 83 81 80 91 92 91 88 86 88 85 81 79 78 76 76 79 77 85 74 86 97 95 90
96 88 92 85 66 70 69 67 70 67 72 79 86 89 89 87 85 84 87 92 89 89 87 89 89 86 85 83 79 84 80 81 81 80 73 89 93 95
97 92 86 77 75 75 77 77 78 81 80 84 96 86 88 90 89 85 82 85 83 84 86 88 86 87 88 88 87 87 84 81 81 80 70 80 87 97
97 99 88 90 85 83 83 82 87 83 90 87 96 95 98 94 91 89 84 85 83 83 82 83 84 85 86 88 87 88 86 81 76 76 79 77 78 87
97 95 99 97 99 94 95 92 97 90 98 95 99 96 94 95 94 88 86 82 82 79 80 79 82 84 84 90 90 91 87 86 81 82 83 81 76 87
98 98 99 98 98 98 98 98 97 98 98 100 94 99 93 96 95 94 87 82 89 80 76 73 81 80 81 85 91 84 81 80 81 81 84 85 82 76
97 97 95 95 96 96 98 95 99 98 98 99 96 98 98 90 89 90 84 82 80 83 77 72 79 79 79 82 83 86 79 72 72 76 80 82 82 85
92 94 94 95 95 97 94 97 95 93 95 96 97 97 97 90 82 77 74 69 70 72 75 71 79 78 74 78 78 78 77 66 71 75 81 87 86 83
45 50 55 59 63 67 70 68 69 72 76 80 78 74 75 76 73 69 68 70 67 69 70 67 68 74 74 74 77 76 79 73 72 76 79 83 90 85
31 30 32 34 35 35 37 43 46 46 48 50 49 47 49 53 59 61 63 66 68 67 68 69 64 72 66 68 68 69 76 75 78 77 76 79 90 91
10 14 19 20 20 20 19 21 24 28 34 37 34 34 33 34 36 37 41 44 53 61 67 68 66 69 68 67 70 74 73 76 82 83 80 80 89 90
9 10 10 11 12 14 15 17 19 20 20 20 22 23 27 30 33 34 35 37 39 42 46 52 58 65 69 69 69 71 74 75 77 76 78 84 89 87
11 11 11 11 10 10 10 11 12 15 17 20 22 23 24 25 27 30 31 33 35 37 38 41 43 48 54 59 63 71 76 78 78 79 83 88 89 94
9 10 10 10 10 10 10 10 11 13 15 18 20 23 25 27 28 29 30 32 33 34 35 36 37 41 46 49 52 57 64 74 81 85 87 88 90 87
8 7 7 7 7 7 8 9 10 12 13 15 16 17 19 22 26 31 34 35 36 37 38 39 39 40 42 45 48 49 55 61 66 75 84 88 96 97
8 8 7 8 8 8 9 9 10 12 14 16 18 19 19 19 21 24 28 35 38 40 41 43 44 44 44 45 47 50 54 56 59 63 70 78 86 91
12 11 11 10 10 10 10 11 10 12 15 17 18 19 20 20 22 23 25 27 29 37 42 46 49 49 51 53 52 54 54 55 59 63 65 67 72 76
15 15 15 14 13 12 12 12 11 11 12 14 16 19 21 23 23 25 26 27 29 30 33 43 50 54 56 57 58 57 59 59 61 63 65 65 71 75
21 21 20 19 18 17 17 16 16 14 14 14 17 19 23 26 27 29 30 32 33 33 33 36 44 51 59 63 62 63 62 65 64 66 66 69 70 76
22 23 24 24 23 22 22 21 20 19 18 18 18 20 26 29 31 32 35 35 35 37 38 38 41 48 56 62 69 69 68 69 69 69 69 70 72 77
30 29 30 30 29 27 26 26 25 25 24 23 22 23 29 31 35 39 40 38 37 38 39 41 43 46 52 59 65 70 72 73 73 73 74 75 76 78

GFSNE_prec_cthk_141.txt.gz
RH
23 32 64 92 97 94 93 85 72 61 55 47 42 39 42 44 47 50 53 55 60 61 61 63 63 62 60 54 52 55 57 57 58 65 72 75 76 76
23 33 36 69 93 96 97 93 82 70 59 50 45 43 45 45 48 52 55 57 60 64 67 71 74 75 76 72 67 64 62 62 62 60 67 72 76 80
27 31 41 60 77 94 97 96 92 78 67 59 54 53 52 51 52 57 59 60 61 65 68 72 78 81 83 83 82 77 74 70 68 66 67 71 74 75
32 32 39 43 64 81 93 96 96 90 79 65 64 62 59 57 58 61 62 63 66 68 71 74 76 80 86 91 91 86 81 77 81 82 82 83 79 80
47 47 44 51 68 78 87 98 94 94 89 82 78 73 70 69 66 65 66 70 73 73 75 76 82 84 87 91 89 89 88 87 87 86 85 87 85 87
53 53 60 59 60 83 98 93 97 97 95 91 94 92 89 81 78 76 73 73 78 80 82 81 86 93 91 91 89 87 84 86 85 86 87 86 86 88
62 58 64 68 72 79 82 90 95 92 95 97 96 98 94 90 83 79 81 80 80 85 86 92 94 92 92 93 90 85 83 82 82 83 84 85 84 88
98 95 82 74 78 76 75 82 91 94 94 96 97 95 97 93 88 89 88 88 87 89 91 92 95 98 95 92 89 89 87 84 81 83 83 85 83 82
96 98 89 90 88 81 80 79 85 89 94 95 98 98 98 98 94 93 96 97 97 98 98 95 96 98 98 96 94 88 87 85 83 81 82 82 81 84
72 80 89 92 87 84 83 85 82 91 93 97 97 98 98 98 97 98 99 97 94 96 97 96 99 98 99 97 94 92 89 86 84 85 83 80 88 89
39 42 44 47 50 57 63 63 66 71 75 82 87 90 92 93 96 97 96 97 97 98 98 98 97 96 96 94 95 93 88 87 84 83 81 79 79 78
22 23 23 22 21 24 28 33 40 45 50 54 57 60 63 68 74 76 76 77 83 86 90 89 85 89 88 88 89 88 86 83 79 76 76 77 73 70
7 8 10 12 20 26 26 23 20 24 24 26 31 38 42 43 45 48 52 60 65 64 57 56 62 63 62 62 62 65 65 66 66 65 64 63 64 60
8 8 8 8 7 8 12 13 12 12 14 15 17 20 21 24 28 32 36 38 41 43 45 48 52 54 53 40 36 37 40 40 40 41 45 49 51 53
9 9 8 8 7 7 6 7 7 6 6 7 9 12 12 16 14 16 17 21 25 31 37 39 36 35 37 39 43 39 35 34 35 36 35 35 35 36
9 8 8 8 8 8 7 7 7 6 6 6 6 7 8 8 9 11 12 10 10 11 16 21 25 29 32 35 36 33 32 31 31 33 32 33 35 36
10 9 8 8 8 8 7 7 7 7 7 7 7 7 7 7 8 10 12 13 14 15 11 11 13 17 21 24 26 31 32 33 33 33 34 34 35 35
12 12 13 15 14 12 10 10 9 9 8 8 8 8 8 8 9 13 17 17 17 18 17 17 16 16 19 21 23 27 29 31 33 34 36 37 38 38
14 17 17 15 18 19 17 15 13 12 12 11 10 9 9 9 10 14 18 18 19 19 19 20 20 21 20 23 27 25 29 32 37 39 42 44 44 43
21 21 21 18 17 18 16 15 15 15 14 13 13 12 11 11 14 19 20 20 20 20 20 20 24 27 25 27 27 27 29 33 39 43 46 48 49 51
23 24 24 25 26 24 19 19 18 17 17 17 17 15 14 14 15 21 21 22 24 25 24 23 25 27 29 29 30 32 33 35 41 44 48 52 54 57
22 26 27 28 25 22 20 18 18 20 20 20 20 19 18 17 18 23 24 24 25 27 27 26 25 28 31 35 35 36 37 42 46 50 55 58 61 65
25 25 26 28 30 29 25 24 24 22 21 21 22 24 24 24 27 28 28 29 29 30 32 29 30 34 38 40 39 40 42 47 49 54 59 63 66 68

GFSNE_prec_cthk_144.txt.gz
RH
58 57 56 52 51 59 64 78 86 92 95 75 67 62 58 58 53 47 43 42 48 49 49 49 50 51 53 52 53 54 53 51 55 57 60 60 64 71
61 53 52 50 47 65 73 86 96 97 97 85 77 61 56 57 54 48 46 48 51 53 53 55 59 61 61 64 66 68 67 62 60 59 62 61 63 69
63 58 47 46 48 45 65 80 76 90 96 90 85 72 64 60 52 46 48 49 51 56 58 59 62 65 68 72 74 77 79 77 74 69 70 67 65 65
58 52 49 49 45 47 49 71 77 93 98 95 92 83 71 68 56 50 51 53 54 56 63 65 65 70 70 74 78 80 82 86 88 84 82 74 72 73
57 52 45 44 50 46 54 56 72 83 92 91 98 94 88 84 76 67 65 62 63 64 64 70 71 68 67 69 73 80 86 91 94 95 91 84 82 85
61 54 48 46 51 57 57 53 61 83 86 82 96 98 94 88 84 80 80 76 68 64 64 68 70 71 73 74 75 78 85 91 92 94 95 93 90 88
59 56 59 59 57 62 58 71 75 65 97 94 93 98 98 91 95 92 88 87 79 77 73 73 75 78 78 80 81 82 85 90 91 91 92 91 90 90
73 77 67 67 69 72 82 71 81 89 97 89 98 96 97 99 95 98 98 98 96 89 86 81 82 83 83 83 92 92 94 91 93 93 94 88 85 87
96 97 96 91 76 81 92 84 91 91 83 94 98 97 97 96 96 96 96 95 97 97 92 93 86 86 84 85 87 91 93 93 92 91 89 89 88 85
59 64 67 74 88 95 97 93 93 90 81 90 89 92 97 99 95 95 97 98 98 98 95 96 92 95 91 92 97 99 93 94 97 94 91 92 92 91
33 36 39 43 46 50 56 62 66 79 82 90 87 85 86 90 96 96 97 97 98 99 99 97 94 95 98 97 98 96 98 96 97 96 94 94 89 89
19 23 29 33 32 29 27 31 37 41 41 44 51 52 58 65 74 85 87 90 95 94 95 98 98 98 97 98 98 98 98 97 97 96 96 96 94 89
16 17 16 18 18 22 28 30 30 29 29 29 31 32 34 36 39 45 53 59 65 72 76 81 78 79 85 86 88 87 89 90 91 90 92 91 88 86
12 10 12 10 10 12 15 15 14 16 17 16 16 17 19 22 24 25 28 34 40 45 49 55 60 63 64 65 66 65 62 61 63 68 70 69 72 74
9 9 8 8 7 7 6 6 6 6 5 5 6 8 12 17 18 11 16 20 23 29 30 33 34 41 49 56 53 50 54 56 54 48 45 47 49 50
16 12 10 13 10 9 8 7 7 6 6 6 6 6 7 8 14 17 21 16 17 24 24 22 23 24 26 32 38 42 43 44 44 48 50 46 41 38
21 21 20 19 18 17 15 10 9 8 8 9 8 7 6 8 14 17 17 18 19 17 17 21 19 18 22 26 28 29 32 34 35 34 35 37 38 38
23 22 22 22 22 20 19 18 17 13 10 11 12 11 11 13 13 17 17 18 19 20 19 21 21 22 24 25 25 26 25 23 22 24 26 28 31 35
32 33 32 31 31 30 30 28 25 20 19 19 19 19 17 18 18 18 19 24 22 20 20 24 24 25 26 26 30 28 22 21 22 24 28 29 30 30
33 33 33 32 31 30 31 31 30 26 23 22 21 20 20 21 20 20 21 26 26 23 26 25 25 26 27 28 27 21 22 24 25 26 30 33 32 34
27 30 33 33 33 32 32 32 32 31 29 26 25 23 22 22 22 22 23 24 25 29 28 27 27 28 27 30 31 33 38 31 26 28 32 37 40 42
25 25 27 30 33 34 33 33 33 33 33 33 32 29 25 25 28 28 29 31 32 31 30 29 29 29 30 36 39 40 40 40 33 33 35 40 43 47
27 27 27 27 28 28 35 36 36 36 36 36 35 30 29 29 34 34 34 35 35 34 33 32 31 32 33 40 40 41 40 39 39 44 44 41 47 53

GFSNE_prec_cthk_147.txt.gz
RH
58 57 56 54 57 58 60 44 37 37 41 76 89 83 80 70 68 68 65 51 35 32 36 39 41 40 42 45 47 47 48 48 48 51 54 55 56 60
65 69 72 72 75 66 61 52 51 44 39 49 71 82 82 74 68 68 70 59 49 41 42 43 47 49 47 47 49 53 54 54 56 58 57 55 59 60
75 77 75 74 83 80 69 59 67 69 68 72 77 91 95 86 75 73 74 69 58 54 46 44 48 50 51 53 56 60 63 65 69 72 72 73 73 67
90 83 83 82 74 71 69 67 72 82 90 83 97 89 90 93 89 79 73 71 68 56 53 51 52 53 57 60 63 67 68 72 75 77 79 80 79 78
96 95 82 84 75 71 63 68 62 59 74 79 95 97 96 94 98 98 85 76 77 69 66 62 63 64 66 68 69 73 75 78 80 81 82 85 89 89
88 83 80 75 67 61 56 49 53 61 69 93 99 98 91 95 92 98 89 87 78 74 70 65 64 71 74 78 75 73 72 71 74 79 82 84 90 90
84 79 72 66 64 57 53 49 48 56 57 71 82 83 84 92 91 97 97 95 91 82 77 73 74 72 73 75 75 75 73 70 72 75 78 83 90 92
79 77 74 69 62 58 56 54 53 60 69 63 66 74 86 95 95 96 98 98 98 96 97 86 83 84 82 78 74 74 74 73 75 77 80 82 86 91
72 78 78 76 75 70 67 64 61 68 64 83 72 70 91 92 90 95 97 98 97 96 98 98 95 91 92 86 84 79 78 77 80 81 84 91 92 93
48 51 50 56 64 68 75 81 74 93 89 94 99 92 94 98 99 97 97 98 98 98 98 98 97 97 96 91 93 85 85 85 87 88 87 92 90 94
32 37 44 47 45 47 49 54 58 78 88 95 92 97 96 98 97 98 98 98 98 98 97 96 98 98 98 97 98 95 94 89 89 86 87 89 91 95
26 25 25 30 34 40 45 40 40 46 47 46 54 60 69 74 78 83 90 93 95 98 97 95 95 97 98 98 97 99 97 94 93 93 93 91 94 97
14 13 18 21 21 24 23 28 29 29 36 36 39 41 40 41 45 45 47 53 61 66 70 76 82 89 94 96 96 97 97 97 96 93 92 94 95 95
18 20 16 14 14 16 15 15 18 22 23 21 22 25 26 28 26 27 31 33 37 37 41 42 46 51 61 70 78 77 78 79 79 77 78 81 83 85
23 22 21 20 16 10 9 8 10 12 11 12 15 18 17 17 16 16 18 17 26 30 32 31 28 31 34 43 48 51 59 58 63 64 68 69 65 59
27 27 25 24 21 20 17 13 9 9 11 12 11 9 9 10 12 15 16 15 17 17 17 19 27 31 27 29 31 34 39 42 43 48 53 49 49 56
38 33 29 27 26 23 22 20 19 18 17 18 15 12 11 11 10 15 15 16 16 16 15 16 16 17 25 31 31 34 36 33 36 37 35 40 42 49
39 37 36 35 34 32 29 28 25 21 20 19 18 18 17 17 16 16 17 19 19 18 16 16 18 18 18 25 34 39 33 26 27 26 29 33 37 38
41 37 36 35 34 33 33 31 31 28 27 29 27 23 20 20 20 20 19 21 22 22 18 23 23 24 27 26 21 28 24 21 23 20 21 26 34 35
38 36 36 35 35 34 33 33 33 32 31 31 31 31 29 30 30 29 29 29 28 22 26 25 25 30 28 26 23 16 23 30 34 31 24 19 23 27
36 37 37 36 36 35 36 36 35 35 34 33 33 32 32 31 31 31 31 30 30 29 28 27 27 27 27 28 27 30 30 33 36 31 29 26 25 28
31 34 34 34 36 36 35 35 37 39 38 36 35 34 34 34 33 32 32 32 31 30 29 29 29 30 31 36 35 35 36 37 39 32 28 31 31 35
31 31 30 30 31 35 37 36 36 37 42 42 39 37 36 36 36 36 35 34 34 33 32 31 31 31 35 38 40 39 40 42 43 41 43 40 40 37

GFSNE_prec_cthk_150.txt.gz
RH
60 62 60 56 52 56 61 86 80 71 62 54 54 60 69 71 86 91 86 76 72 68 60 41 36 35 37 40 42 44 45 47 50 52 53 56 57 57
67 66 70 67 63 58 65 71 76 71 62 52 49 54 43 47 63 97 96 84 75 74 70 49 35 33 33 34 37 39 42 46 49 53 55 54 54 56
77 76 73 78 70 63 67 70 78 81 78 65 56 45 33 39 62 72 96 94 79 76 76 66 37 32 34 37 40 43 46 50 53 55 58 59 61 66
90 86 86 86 81 79 81 91 87 86 81 73 68 60 58 59 68 93 98 99 82 78 76 78 55 41 44 46 51 53 55 56 56 59 64 67 72 76
97 96 95 94 93 97 88 92 96 92 88 83 78 77 75 70 99 98 96 83 98 90 85 85 83 69 59 56 59 62 61 65 67 68 73 76 81 82
98 98 99 97 97 94 90 83 86 77 84 79 76 83 89 89 87 90 87 95 93 99 95 96 95 87 77 71 66 66 71 74 77 79 79 81 84 86
97 98 98 91 89 82 77 69 67 66 66 63 64 69 74 87 98 95 96 97 96 95 98 98 98 94 88 79 74 75 78 82 81 80 82 84 84 82
87 91 93 91 91 85 79 72 68 66 62 57 57 57 67 74 90 97 99 97 96 93 99 98 98 96 93 85 79 78 80 83 84 87 86 83 82 80
54 64 71 75 80 83 80 77 71 64 61 60 58 60 66 69 69 83 91 97 93 94 97 99 98 98 97 91 87 86 84 85 86 84 84 82 82 81
36 40 42 47 52 50 54 68 73 71 67 63 62 65 64 63 65 73 86 94 96 97 98 98 98 99 99 97 93 90 92 85 84 85 83 80 82 82
35 40 35 37 37 40 43 40 41 45 53 58 64 72 76 90 93 80 88 98 97 98 98 98 98 98 98 98 98 98 97 95 95 98 92 92 90 84
24 24 35 37 29 33 36 41 43 42 44 47 51 57 64 73 77 84 84 94 95 96 98 98 98 98 98 98 98 98 99 97 98 97 98 95 93 92
22 29 31 29 30 30 28 29 33 40 36 34 37 42 46 48 50 55 59 66 70 74 77 78 81 86 94 95 95 97 97 95 97 98 97 96 95 95
22 23 24 24 15 13 13 22 26 25 24 25 30 30 30 31 31 38 45 47 48 51 49 52 53 51 53 54 58 62 64 72 76 82 87 89 90 89
29 24 23 22 19 16 14 11 10 13 19 26 26 23 24 26 29 29 30 33 37 36 36 35 34 36 35 38 40 40 38 43 50 52 59 65 69 70
36 39 31 25 23 21 20 18 15 16 17 15 13 14 18 21 24 25 24 27 29 30 31 32 32 29 27 27 27 28 33 35 39 39 35 34 38 48
45 41 36 34 33 28 24 24 21 18 20 19 17 14 14 13 16 17 19 20 21 21 20 20 19 20 25 31 30 31 29 24 24 28 31 29 29 35
44 44 45 45 42 39 34 31 29 27 24 23 21 18 17 19 19 18 18 16 17 15 15 17 17 20 17 17 22 19 19 16 14 17 18 21 23 26
39 39 38 38 36 38 37 32 29 28 26 25 24 23 21 21 20 18 19 17 16 18 20 22 23 26 22 18 12 14 18 17 20 21 23 21 17 13
38 39 36 34 32 32 32 36 36 35 30 25 22 21 20 20 22 22 22 19 18 19 18 19 20 22 24 24 24 14 20 27 27 27 26 23 18 14
34 32 31 31 32 33 34 34 36 37 36 34 31 28 24 22 24 24 23 22 23 24 23 21 21 26 26 24 24 23 20 21 29 31 30 24 19 17
34 34 34 33 33 32 32 32 31 33 37 39 36 34 29 27 30 28 25 25 23 25 24 27 25 22 22 28 29 27 23 20 23 32 38 32 32 28
37 36 36 34 33 32 31 31 30 32 36 40 39 36 33 32 35 32 28 26 28 29 30 28 24 25 27 28 29 29 26 23 29 33 37 32 32 41

GFSNE_prec_cthk_156.txt.gz
RH
64 63 62 62 62 58 55 56 56 52 43 40 39 44 45 58 60 59 60 68 70 61 71 85 86 75 75 76 64 49 47 55 67 74 77 79 75 72
67 68 67 67 62 60 57 57 57 58 51 46 47 57 59 66 67 65 72 77 68 76 81 88 94 91 85 81 79 66 51 48 54 68 73 77 76 75
71 71 69 66 66 66 66 62 59 61 56 52 59 67 74 72 71 73 73 77 79 77 83 91 95 97 97 93 88 87 70 51 49 56 65 71 72 72
74 78 77 76 74 72 71 69 72 65 67 67 69 71 72 81 81 77 80 80 82 88 83 94 90 95 93 93 95 91 87 67 50 51 55 62 68 66
75 80 82 81 82 82 92 91 79 78 79 72 77 73 83 95 95 83 84 83 76 84 92 93 95 90 91 97 94 91 93 79 64 52 51 53 57 61
41 69 81 87 86 91 97 98 91 82 79 85 78 83 79 92 96 90 88 86 82 76 74 72 75 71 72 82 93 91 91 91 75 65 58 55 49 51
35 42 51 70 88 89 96 97 98 93 93 89 89 79 79 75 79 88 88 87 86 84 75 77 70 61 64 78 75 88 92 98 88 78 70 66 68 62
31 37 43 45 60 61 76 97 96 98 94 93 94 85 86 84 85 82 90 90 89 81 82 80 72 72 69 80 90 92 95 97 96 88 83 74 75 72
32 31 32 38 44 51 63 66 81 96 97 96 97 92 85 92 92 86 87 87 87 85 84 81 78 73 72 82 86 93 94 97 99 95 91 84 81 78
24 34 36 37 31 43 40 49 54 64 80 88 96 97 95 90 88 85 83 82 83 84 83 79 75 74 71 77 84 94 96 97 98 97 98 91 90 86
24 30 33 33 37 34 38 38 38 49 53 64 76 78 79 95 92 86 83 80 80 81 79 77 77 79 82 83 83 94 93 93 97 98 98 97 98 92
34 28 36 36 25 25 37 34 37 37 46 48 46 59 61 62 64 78 85 85 84 85 84 82 80 78 81 81 88 94 96 96 96 97 98 98 94 98
43 43 39 38 30 24 22 21 25 30 39 34 35 40 49 43 51 52 56 62 68 76 82 80 78 78 80 83 90 94 96 96 96 97 97 98 95 97
48 47 46 44 45 41 28 19 20 16 19 26 34 39 34 37 42 44 43 40 48 57 59 59 68 71 78 84 86 89 92 93 95 96 92 92 93 97
48 50 46 44 43 44 44 38 23 20 16 13 15 18 26 34 38 38 34 43 47 37 38 54 58 55 59 64 68 65 68 76 76 75 78 78 78 81
47 46 45 43 42 42 42 43 40 39 32 23 20 15 13 12 16 21 26 33 38 39 35 35 42 52 58 55 45 54 59 59 56 61 58 53 55 61
46 43 41 40 41 41 42 41 41 42 39 35 28 25 23 23 16 12 13 16 19 18 21 29 34 31 33 39 47 52 51 52 53 55 47 47 50 45
44 40 40 40 39 40 41 41 39 38 37 39 38 35 32 28 24 23 23 20 16 14 13 12 11 16 23 33 39 38 39 43 45 44 46 47 45 45
41 38 37 36 37 38 38 39 42 43 42 38 36 34 32 30 27 25 24 22 23 23 20 15 14 12 13 17 18 25 29 32 31 31 34 40 41 41
41 39 38 37 37 36 35 35 37 39 37 37 39 37 32 28 26 25 23 22 21 21 23 21 19 17 18 19 18 15 19 19 26 28 30 30 32 33
40 39 38 37 35 35 34 34 35 38 36 36 35 34 31 29 28 26 24 23 23 22 22 21 21 21 21 19 16 11 12 16 19 20 19 22 25 24
42 41 39 36 34 33 32 31 32 36 37 37 38 38 35 33 31 29 27 26 24 23 23 22 20 20 20 25 24 18 13 12 13 16 20 25 28 25
42 38 36 34 33 33 32 31 31 32 35 35 36 35 34 31 31 28 26 25 25 24 24 23 22 22 22 22 22 21 19 17 15 13 14 24 28 30